H1 CPF 2 NER 2024 10 1 9 275 01 glonass106 H2 0705201 9106 32275 2024 10 1 0 0 0 2024 10 4 23 45 0 900 1 1 0 0 0 1 H9 10 0 60584 0.00000 0 -16055135.021 16466294.528 11022521.582 10 0 60584 900.00000 0 -16903782.735 17309146.276 8063039.046 10 0 60584 1800.00000 0 -17396783.103 17977712.783 4946810.767 10 0 60584 2700.00000 0 -17553187.882 18416317.119 1734404.981 10 0 60584 3600.00000 0 -17404034.040 18576069.470 -1511724.070 10 0 60584 4500.00000 0 -16990837.890 18417088.145 -4728455.497 10 0 60584 5400.00000 0 -16363660.456 17910356.636 -7853235.135 10 0 60584 6300.00000 0 -15578826.630 17039137.247 -10825298.143 10 0 60584 7200.00000 0 -14696395.371 15799880.546 -13586856.164 10 0 60584 8100.00000 0 -13777488.664 14202591.359 -16084225.305 10 0 60584 9000.00000 0 -12881592.859 12270634.998 -18268872.508 10 0 60584 9900.00000 0 -12063946.891 10039991.181 -20098359.672 10 0 60584 10800.00000 0 -11373127.968 7557986.294 -21537167.264 10 0 60584 11700.00000 0 -10848936.608 4881556.542 -22557381.669 10 0 60584 12600.00000 0 -10520670.060 2075114.090 -23139233.386 10 0 60584 13500.00000 0 -10405856.457 -791895.303 -23271476.209 10 0 60584 14400.00000 0 -10509502.563 -3647641.988 -22951600.621 10 0 60584 15300.00000 0 -10823886.240 -6420659.811 -22185877.770 10 0 60584 16200.00000 0 -11328901.913 -9042577.712 -20989233.614 10 0 60584 17100.00000 0 -11992944.074 -11450722.820 -19384955.868 10 0 60584 18000.00000 0 -12774291.376 -13590487.739 -17404239.550 10 0 60584 18900.00000 0 -13622932.881 -15417364.566 -15085579.850 10 0 60584 19800.00000 0 -14482759.501 -16898562.070 -12474023.927 10 0 60584 20700.00000 0 -15294028.259 -18014139.693 -9620295.977 10 0 60584 21600.00000 0 -15995995.546 -18757612.226 -6579812.382 10 0 60584 22500.00000 0 -16529608.307 -19136001.055 -3411605.905 10 0 60584 23400.00000 0 -16840139.546 -19169330.955 -177179.873 10 0 60584 24300.00000 0 -16879656.846 -18889594.680 3060685.364 10 0 60584 25200.00000 0 -16609219.512 -18339229.808 6239150.371 10 0 60584 26100.00000 0 -16000711.339 -17569172.778 9296535.137 10 0 60584 27000.00000 0 -15038231.332 -16636572.686 12173514.360 10 0 60584 27900.00000 0 -13718983.232 -15602261.550 14814266.325 10 0 60584 28800.00000 0 -12053625.754 -14528087.840 17167553.100 10 0 60584 29700.00000 0 -10066067.969 -13474225.533 19187711.382 10 0 60584 30600.00000 0 -7792717.425 -12496571.794 20835535.161 10 0 60584 31500.00000 0 -5281211.306 -11644342.434 22079033.510 10 0 60584 32400.00000 0 -2588682.414 -10957965.856 22894049.347 10 0 60584 33300.00000 0 220369.134 -10467363.593 23264727.616 10 0 60584 34200.00000 0 3076511.189 -10190689.346 23183824.103 10 0 60584 35100.00000 0 5908021.916 -10133579.316 22652849.048 10 0 60584 36000.00000 0 8643630.686 -10288945.278 21682042.603 10 0 60584 36900.00000 0 11215244.685 -10637319.313 20290182.276 10 0 60584 37800.00000 0 13560548.894 -11147736.013 18504225.444 10 0 60584 38700.00000 0 15625372.044 -11779115.528 16358793.133 10 0 60584 39600.00000 0 17365720.533 -12482089.699 13895504.255 10 0 60584 40500.00000 0 18749395.882 -13201194.710 11162172.460 10 0 60584 41400.00000 0 19757128.421 -13877338.032 8211880.520 10 0 60584 42300.00000 0 20383179.961 -14450435.494 5101949.899 10 0 60584 43200.00000 0 20635390.419 -14862106.779 1892825.405 10 0 60584 44100.00000 0 20534666.757 -15058314.839 -1353103.212 10 0 60584 45000.00000 0 20113936.197 -14991836.780 -4572719.259 10 0 60584 45900.00000 0 19416608.373 -14624460.733 -7703412.348 10 0 60584 46800.00000 0 18494611.987 -13928814.688 -10684302.084 10 0 60584 47700.00000 0 17406089.594 -12889748.916 -13457427.564 10 0 60584 48600.00000 0 16212848.585 -11505212.487 -15968878.833 10 0 60584 49500.00000 0 14977676.635 -9786585.921 -18169847.797 10 0 60584 50400.00000 0 13761635.434 -7758455.069 -20017577.870 10 0 60584 51300.00000 0 12621447.107 -5457834.902 -21476193.911 10 0 60584 52200.00000 0 11607083.489 -2932875.023 -22517396.600 10 0 60584 53100.00000 0 10759659.553 -241100.408 -23121008.199 10 0 60584 54000.00000 0 10109719.145 2552739.763 -23275359.681 10 0 60584 54900.00000 0 9675984.458 5379126.176 -22977512.316 10 0 60584 55800.00000 0 9464621.014 8166424.774 -22233309.935 10 0 60584 56700.00000 0 9469048.252 10843633.725 -21057261.287 10 0 60584 57600.00000 0 9670302.851 13343108.505 -19472255.006 10 0 60584 58500.00000 0 10037938.811 15603152.553 -17509112.806 10 0 60584 59400.00000 0 10531425.828 17570366.578 -15205989.512 10 0 60584 60300.00000 0 11101986.615 19201659.619 -12607631.400 10 0 60584 61200.00000 0 11694795.409 20465838.923 -9764507.058 10 0 60584 62100.00000 0 12251444.694 21344713.268 -6731827.461 10 0 60584 63000.00000 0 12712575.876 21833664.562 -3568474.154 10 0 60584 63900.00000 0 13020562.640 21941664.787 -335856.379 10 0 60584 64800.00000 0 13122133.473 21690738.496 2903280.620 10 0 60584 65700.00000 0 12970822.360 21114894.334 6086072.837 10 0 60584 66600.00000 0 12529143.825 20258571.244 9150756.473 10 0 60584 67500.00000 0 11770400.133 19174665.303 12037864.861 10 0 60584 68400.00000 0 10680043.903 17922220.644 14691380.084 10 0 60584 69300.00000 0 9256538.068 16563881.811 17059817.014 10 0 60584 70200.00000 0 7511676.193 15163214.686 19097218.956 10 0 60584 71100.00000 0 5470348.666 13782008.410 20764046.007 10 0 60584 72000.00000 0 3169763.411 12477671.248 22027939.287 10 0 60584 72900.00000 0 658152.390 11300829.236 22864346.794 10 0 60584 73800.00000 0 -2006983.558 10293227.767 23256999.144 10 0 60584 74700.00000 0 -4761019.832 9486023.575 23198226.329 10 0 60584 75600.00000 0 -7534655.306 8898538.224 22689109.469 10 0 60584 76500.00000 0 -10256561.311 8537524.986 21739464.507 10 0 60584 77400.00000 0 -12856123.412 8396979.660 20367657.799 10 0 60584 78300.00000 0 -15266163.014 8458503.178 18600256.588 10 0 60584 79200.00000 0 -17425526.378 8692200.828 16471520.391 10 0 60584 80100.00000 0 -19281433.715 9058080.421 14022742.348 10 0 60584 81000.00000 0 -20791490.759 9507890.619 11301452.534 10 0 60584 81900.00000 0 -21925278.921 9987322.011 8360498.045 10 0 60584 82800.00000 0 -22665457.530 10438477.867 5257017.333 10 0 60584 83700.00000 0 -23008331.968 10802509.883 2051328.591 10 0 60584 84600.00000 0 -22963863.898 11022306.872 -1194246.043 10 0 60584 85500.00000 0 -22555123.334 11045121.848 -4416597.088 10 0 60585 0.00000 0 -21817205.994 10825025.382 -7553060.527 10 0 60585 900.00000 0 -20795661.582 10325080.130 -10542643.691 10 0 60585 1800.00000 0 -19544500.911 9519143.760 -13327215.346 10 0 60585 2700.00000 0 -18123865.210 8393222.550 -15852641.717 10 0 60585 3600.00000 0 -16597457.418 6946317.649 -18069841.614 10 0 60585 4500.00000 0 -15029843.909 5190727.268 -19935741.541 10 0 60585 5400.00000 0 -13483740.591 3151791.179 -21414111.933 10 0 60585 6300.00000 0 -12017397.681 867087.382 -22476268.542 10 0 60585 7200.00000 0 -10682192.865 -1614886.148 -23101625.765 10 0 60585 8100.00000 0 -9520533.454 -4236490.230 -23278091.746 10 0 60585 9000.00000 0 -8564154.863 -6933110.231 -23002298.177 10 0 60585 9900.00000 0 -7832885.877 -9635619.188 -22279660.876 10 0 60585 10800.00000 0 -7333931.459 -12273036.394 -21124270.384 10 0 60585 11700.00000 0 -7061702.078 -14775271.554 -19558614.978 10 0 60585 12600.00000 0 -6998195.652 -17075840.960 -17613141.556 10 0 60585 13500.00000 0 -7113915.058 -19114443.369 -15325662.874 10 0 60585 14400.00000 0 -7369281.747 -20839289.027 -12740622.467 10 0 60585 15300.00000 0 -7716485.206 -22209085.435 -9908231.351 10 0 60585 16200.00000 0 -8101689.742 -23194597.708 -6883493.076 10 0 60585 17100.00000 0 -8467504.990 -23779719.081 -3725135.911 10 0 60585 18000.00000 0 -8755615.466 -23962007.449 -494472.926 10 0 60585 18900.00000 0 -8909457.737 -23752666.235 2745787.864 10 0 60585 19800.00000 0 -8876831.749 -23175971.070 5932760.054 10 0 60585 20700.00000 0 -8612335.648 -22268166.982 9004598.293 10 0 60585 21600.00000 0 -8079520.843 -21075882.970 11901696.828 10 0 60585 22500.00000 0 -7252675.889 -19654130.934 14567843.857 10 0 60585 23400.00000 0 -6118163.372 -18063973.266 16951309.331 10 0 60585 24300.00000 0 -4675252.753 -16369957.039 19005845.350 10 0 60585 25200.00000 0 -2936413.240 -14637422.269 20691580.140 10 0 60585 26100.00000 0 -927053.285 -12929796.768 21975788.675 10 0 60585 27000.00000 0 1315283.678 -11305990.386 22833525.549 10 0 60585 27900.00000 0 3742235.063 -9817997.087 23248108.277 10 0 60585 28800.00000 0 6296393.118 -8508804.540 23211441.960 10 0 60585 29700.00000 0 8913464.665 -7410697.963 22724179.185 10 0 60585 30600.00000 0 11524728.136 -6544028.589 21795711.954 10 0 60585 31500.00000 0 14059686.971 -5916497.741 20443995.433 10 0 60585 32400.00000 0 16448810.045 -5522986.148 18695206.386 10 0 60585 33300.00000 0 18626245.926 -5345935.321 16583242.138 10 0 60585 34200.00000 0 20532398.395 -5356264.822 14149069.020 10 0 60585 35100.00000 0 22116256.087 -5514786.665 11439932.114 10 0 60585 36000.00000 0 23337378.998 -5774057.102 8508441.006 10 0 60585 36900.00000 0 24167458.606 -6080587.427 5411548.877 10 0 60585 37800.00000 0 24591386.011 -6377319.992 2209444.657 10 0 60585 38700.00000 0 24607783.095 -6606264.158 -1035620.109 10 0 60585 39600.00000 0 24228974.207 -6711179.859 -4260546.374 10 0 60585 40500.00000 0 23480399.624 -6640194.212 -7402620.376 10 0 60585 41400.00000 0 22399495.629 -6348239.344 -10400739.367 10 0 60585 42300.00000 0 21034088.739 -5799207.089 -13196605.557 10 0 60585 43200.00000 0 19440372.149 -4967728.289 -15735864.353 10 0 60585 44100.00000 0 17680550.108 -3840500.411 -17969164.222 10 0 60585 45000.00000 0 15820249.790 -2417106.420 -19853117.222 10 0 60585 45900.00000 0 13925809.832 -710289.467 -21351141.537 10 0 60585 46800.00000 0 12061559.531 1254329.057 -22434169.853 10 0 60585 47700.00000 0 10287202.752 3439077.064 -23081210.235 10 0 60585 48600.00000 0 8655415.814 5795570.996 -23279749.180 10 0 60585 49500.00000 0 7209759.253 8266511.505 -23025989.616 10 0 60585 50400.00000 0 5982989.991 10787861.259 -22324919.757 10 0 60585 51300.00000 0 4995843.401 13291314.752 -21190211.943 10 0 60585 52200.00000 0 4256334.992 15706957.864 -19643953.680 10 0 60585 53100.00000 0 3759609.676 17966006.965 -17716216.200 10 0 60585 54000.00000 0 3488343.600 20003514.060 -15444468.914 10 0 60585 54900.00000 0 3413680.469 21760925.794 -12872850.906 10 0 60585 55800.00000 0 3496661.882 23188390.075 -10051313.484 10 0 60585 56700.00000 0 3690090.550 24246714.531 -7034650.231 10 0 60585 57600.00000 0 3940747.020 24908895.451 -3881433.240 10 0 60585 58500.00000 0 4191865.771 25161153.682 -652876.212 10 0 60585 59400.00000 0 4385765.526 25003434.620 2588353.470 10 0 60585 60300.00000 0 4466522.237 24449351.764 5779350.509 10 0 60585 61200.00000 0 4382571.332 23525576.671 8858191.513 10 0 60585 62100.00000 0 4089128.908 22270701.276 11765135.053 10 0 60585 63000.00000 0 3550329.183 20733620.594 14443778.664 10 0 60585 63900.00000 0 2740987.507 18971503.798 16842150.362 10 0 60585 64800.00000 0 1647914.034 17047438.742 18913713.740 10 0 60585 65700.00000 0 270721.969 15027848.389 20618267.522 10 0 60585 66600.00000 0 -1377904.530 12979786.948 21922722.545 10 0 60585 67500.00000 0 -3272495.159 10968228.249 22801741.627 10 0 60585 68400.00000 0 -5375620.430 9053458.978 23238230.361 10 0 60585 69300.00000 0 -7639227.646 7288684.914 23223669.667 10 0 60585 70200.00000 0 -10006431.627 5717949.285 22758283.788 10 0 60585 71100.00000 0 -12413687.055 4374449.361 21851040.412 10 0 60585 72000.00000 0 -14793253.243 3279320.893 20519482.567 10 0 60585 72900.00000 0 -17075849.845 2440940.550 18789394.999 10 0 60585 73800.00000 0 -19193393.758 1854775.000 16694310.769 10 0 60585 74700.00000 0 -21081703.696 1503782.524 14274866.820 10 0 60585 75600.00000 0 -22683059.824 1359349.869 11578020.273 10 0 60585 76500.00000 0 -23948511.524 1382724.576 8656139.931 10 0 60585 77400.00000 0 -24839836.423 1526882.008 5565990.258 10 0 60585 78300.00000 0 -25331068.228 1738747.762 2367627.403 10 0 60585 79200.00000 0 -25409528.776 1961680.918 -876771.187 10 0 60585 80100.00000 0 -25076320.513 2138112.297 -4104120.298 10 0 60585 81000.00000 0 -24346258.393 2212225.106 -7251659.411 10 0 60585 81900.00000 0 -23247243.876 2132563.420 -10258179.336 10 0 60585 82800.00000 0 -21819107.466 1854456.971 -13065218.281 10 0 60585 83700.00000 0 -20111968.623 1342158.504 -15618203.387 10 0 60585 84600.00000 0 -18184182.404 570602.261 -17867514.967 10 0 60585 85500.00000 0 -16099959.436 -473291.672 -19769452.401 10 0 60586 0.00000 0 -13926759.671 -1789822.953 -21287082.770 10 0 60586 900.00000 0 -11732568.157 -3366261.535 -22390956.708 10 0 60586 1800.00000 0 -9583169.834 -5177152.612 -23059675.995 10 0 60586 2700.00000 0 -7539533.199 -7185166.217 -23280305.162 10 0 60586 3600.00000 0 -5655414.468 -9342454.888 -23048617.578 10 0 60586 4500.00000 0 -3975280.379 -11592463.898 -22369172.661 10 0 60586 5400.00000 0 -2532635.458 -13872118.976 -21255223.021 10 0 60586 6300.00000 0 -1348822.327 -16114300.803 -19728453.588 10 0 60586 7200.00000 0 -432343.810 -18250503.559 -17818557.943 10 0 60586 8100.00000 0 221266.262 -20213567.144 -15562660.008 10 0 60586 9000.00000 0 629019.628 -21940369.500 -13004592.200 10 0 60586 9900.00000 0 819516.643 -23374366.975 -10194043.871 10 0 60586 10800.00000 0 831497.308 -24467876.911 -7185596.397 10 0 60586 11700.00000 0 711962.324 -25184007.300 -4037663.490 10 0 60586 12600.00000 0 513944.316 -25498152.947 -811357.331 10 0 60586 13500.00000 0 294024.034 -25398995.711 2430697.429 10 0 60586 14400.00000 0 109697.025 -24888967.119 5625578.660 10 0 60586 15300.00000 0 16702.576 -23984154.142 8711286.943 10 0 60586 16200.00000 0 66428.198 -22713652.257 11627947.159 10 0 60586 17100.00000 0 303499.676 -21118393.020 14318968.119 10 0 60586 18000.00000 0 763658.845 -19249495.322 16732137.761 10 0 60586 18900.00000 0 1472019.027 -17166209.253 18820632.909 10 0 60586 19800.00000 0 2441772.223 -14933538.355 20543924.354 10 0 60586 20700.00000 0 3673403.143 -12619639.261 21868560.150 10 0 60586 21600.00000 0 5154444.040 -10293106.712 22768812.444 10 0 60586 22500.00000 0 6859781.720 -8020256.513 23227175.753 10 0 60586 23400.00000 0 8752505.171 -5862518.914 23234707.387 10 0 60586 24300.00000 0 10785259.772 -3874050.166 22791203.552 10 0 60586 25200.00000 0 12902052.943 -2099660.891 21905207.682 10 0 60586 26100.00000 0 15040437.268 -573146.802 20593850.486 10 0 60586 27000.00000 0 17133981.187 683909.382 18882524.286 10 0 60586 27900.00000 0 19114925.177 1662815.494 16804397.219 10 0 60586 28800.00000 0 20916913.177 2367899.211 14399775.937 10 0 60586 29700.00000 0 22477685.469 2816084.252 11715328.388 10 0 60586 30600.00000 0 23741620.403 3035931.793 8803181.064 10 0 60586 31500.00000 0 24662018.209 3066187.997 5719907.850 10 0 60586 32400.00000 0 25203030.634 2953899.459 2525429.896 10 0 60586 33300.00000 0 25341154.763 2752176.848 -718151.963 10 0 60586 34200.00000 0 25066227.558 2517702.053 -3947769.119 10 0 60586 35100.00000 0 24381878.687 2308085.263 -7100617.215 10 0 60586 36000.00000 0 23305422.117 2179184.834 -10115383.581 10 0 60586 36900.00000 0 21867190.721 2182504.503 -12933445.333 10 0 60586 37800.00000 0 20109341.758 2362779.150 -15500014.116 10 0 60586 38700.00000 0 18084183.489 2755852.268 -17765204.665 10 0 60586 39600.00000 0 15852093.322 3386935.740 -19685006.042 10 0 60586 40500.00000 0 13479114.965 4269326.222 -21222136.606 10 0 60586 41400.00000 0 11034335.336 5403632.953 -22346766.308 10 0 60586 42300.00000 0 8587150.943 6777550.136 -23037092.637 10 0 60586 43200.00000 0 6204537.687 8366184.031 -23279759.588 10 0 60586 44100.00000 0 3948437.564 10132921.596 -23070112.107 10 0 60586 45000.00000 0 1873370.536 12030804.795 -22412281.606 10 0 60586 45900.00000 0 24370.127 14004353.578 -21319101.357 10 0 60586 46800.00000 0 -1564672.401 15991761.795 -19811853.701 10 0 60586 47700.00000 0 -2872187.572 17927374.721 -17919854.082 10 0 60586 48600.00000 0 -3889583.198 19744345.073 -15679880.011 10 0 60586 49500.00000 0 -4621349.986 21377356.865 -13135455.858 10 0 60586 50400.00000 0 -5084614.345 22765303.454 -10336007.205 10 0 60586 51300.00000 0 -5308158.594 23853807.951 -7335901.000 10 0 60586 52200.00000 0 -5330951.071 24597480.597 -4193389.991 10 0 60586 53100.00000 0 -5200249.158 24961818.568 -969481.947 10 0 60586 54000.00000 0 -4969356.141 24924668.624 2273244.350 10 0 60586 54900.00000 0 -4695127.365 24477191.221 5471853.241 10 0 60586 55800.00000 0 -4435331.616 23624285.628 8564272.666 10 0 60586 56700.00000 0 -4245979.671 22384458.149 11490497.208 10 0 60586 57600.00000 0 -4178733.236 20789138.860 14193750.266 10 0 60586 58500.00000 0 -4278503.986 18881475.323 16621582.878 10 0 60586 59400.00000 0 -4581344.318 16714653.485 18726888.073 10 0 60586 60300.00000 0 -5112719.082 14349815.603 20468811.437 10 0 60586 61200.00000 0 -5886231.498 11853661.608 21813540.673 10 0 60586 62100.00000 0 -6902857.485 9295833.354 22734959.334 10 0 60586 63000.00000 0 -8150721.321 6746189.941 23215152.538 10 0 60586 63900.00000 0 -9605423.088 4272086.732 23244755.188 10 0 60586 64800.00000 0 -11230905.298 1935770.356 22823136.145 10 0 60586 65700.00000 0 -12980823.762 -208002.852 21958414.705 10 0 60586 66600.00000 0 -14800366.608 -2114026.771 20667308.771 10 0 60586 67500.00000 0 -16628446.627 -3748298.817 18974817.135 10 0 60586 68400.00000 0 -18400176.337 -5089198.565 16913741.299 10 0 60586 69300.00000 0 -20049522.981 -6128143.105 14524055.353 10 0 60586 70200.00000 0 -21512032.805 -6869692.408 11852135.314 10 0 60586 71100.00000 0 -22727510.591 -7331100.872 8949862.212 10 0 60586 72000.00000 0 -23642541.831 -7541334.487 5873615.893 10 0 60586 72900.00000 0 -24212751.149 -7539595.654 2683178.875 10 0 60586 73800.00000 0 -24404701.330 -7373418.528 -559428.348 10 0 60586 74700.00000 0 -24197352.253 -7096416.160 -3791157.493 10 0 60586 75600.00000 0 -23583017.475 -6765775.547 -6949164.027 10 0 60586 76500.00000 0 -22567777.427 -6439607.561 -9972035.325 10 0 60586 77400.00000 0 -21171331.192 -6174264.910 -12800990.735 10 0 60586 78300.00000 0 -19426292.667 -6021742.676 -15381029.457 10 0 60586 79200.00000 0 -17376960.366 -6027272.285 -17662003.341 10 0 60586 80100.00000 0 -15077612.423 -6227211.507 -19599593.363 10 0 60586 81000.00000 0 -12590398.219 -6647320.271 -21156170.730 10 0 60586 81900.00000 0 -9982914.822 -7301495.608 -22301526.057 10 0 60586 82800.00000 0 -7325569.507 -8191019.490 -23013452.813 10 0 60586 83700.00000 0 -4688838.169 -9304351.577 -23278174.240 10 0 60586 84600.00000 0 -2140533.521 -10617475.933 -23090606.053 10 0 60586 85500.00000 0 256803.755 -12094787.467 -22454450.345 10 0 60587 0.00000 0 2448282.958 -13690481.111 -21382119.438 10 0 60587 900.00000 0 4388713.649 -15350386.739 -19894490.826 10 0 60587 1800.00000 0 6044241.247 -17014171.148 -18020499.603 10 0 60587 2700.00000 0 7393505.057 -18617818.024 -15796574.398 10 0 60587 3600.00000 0 8428268.954 -20096280.227 -13265928.945 10 0 60587 4500.00000 0 9153501.069 -21386194.284 -10477722.394 10 0 60587 5400.00000 0 9586900.478 -22428543.315 -7486104.573 10 0 60587 6300.00000 0 9757892.170 -23171156.768 -4349164.583 10 0 60587 7200.00000 0 9706133.822 -23570942.026 -1127803.133 10 0 60587 8100.00000 0 9479598.384 -23595754.115 2115449.432 10 0 60587 9000.00000 0 9132314.235 -23225824.824 5317646.370 10 0 60587 9900.00000 0 8721859.006 -22454691.042 8416645.292 10 0 60587 10800.00000 0 8306713.429 -21289583.047 11352312.607 10 0 60587 11700.00000 0 7943587.332 -19751256.176 14067688.232 10 0 60587 12600.00000 0 7684830.949 -17873272.509 16510087.998 10 0 60587 13500.00000 0 7576040.919 -15700762.215 18632122.574 10 0 60587 14400.00000 0 7653962.085 -13288715.740 20392613.504 10 0 60587 15300.00000 0 7944773.653 -10699877.525 21757388.999 10 0 60587 16200.00000 0 8462832.115 -8002328.263 22699944.578 10 0 60587 17100.00000 0 9209924.216 -5266855.511 23201956.222 10 0 60587 18000.00000 0 10175061.958 -2564221.114 23253636.416 10 0 60587 18900.00000 0 11334829.058 37561.950 22853926.403 10 0 60587 19800.00000 0 12654265.313 2475831.142 22010520.859 10 0 60587 20700.00000 0 14088252.893 4695647.123 20739724.207 10 0 60587 21600.00000 0 15583347.577 6651839.936 19066140.867 10 0 60587 22500.00000 0 17079979.209 8310644.211 17022204.718 10 0 60587 23400.00000 0 18514929.967 9650855.930 14647556.128 10 0 60587 24300.00000 0 19823987.051 10664463.067 11988277.846 10 0 60587 25200.00000 0 20944658.688 11356724.345 9096003.905 10 0 60587 26100.00000 0 21818839.223 11745693.339 6026918.356 10 0 60587 27000.00000 0 22395310.790 11861208.588 2840663.108 10 0 60587 27900.00000 0 22631975.587 11743392.900 -400823.878 10 0 60587 28800.00000 0 22497723.830 11440725.889 -3634517.009 10 0 60587 29700.00000 0 21973857.743 11007772.040 -6797534.029 10 0 60587 30600.00000 0 21055010.564 10502661.201 -9828364.846 10 0 60587 31500.00000 0 19749520.979 9984429.083 -12668073.480 10 0 60587 32400.00000 0 18079246.454 9510331.170 -15261449.005 10 0 60587 33300.00000 0 16078822.697 9133244.518 -17558082.558 10 0 60587 34200.00000 0 13794399.927 8899268.027 -19513349.043 10 0 60587 35100.00000 0 11281908.603 8845623.130 -21089274.360 10 0 60587 36000.00000 0 8604926.971 8998943.908 -22255271.483 10 0 60587 36900.00000 0 5832239.314 9374028.976 -22988731.394 10 0 60587 37800.00000 0 3035186.516 9973107.853 -23275457.940 10 0 60587 38700.00000 0 284918.906 10785652.724 -23109938.736 10 0 60587 39600.00000 0 -2350334.800 11788743.562 -22495447.383 10 0 60587 40500.00000 0 -4807869.574 12947971.294 -21443975.509 10 0 60587 41400.00000 0 -7032869.931 14218841.204 -19975996.228 10 0 60587 42300.00000 0 -8980442.172 15548617.783 -18120063.786 10 0 60587 43200.00000 0 -10617229.717 16878533.742 -15912257.154 10 0 60587 44100.00000 0 -11922545.568 18146270.668 -13395478.246 10 0 60587 45000.00000 0 -12888976.034 19288607.277 -10618618.229 10 0 60587 45900.00000 0 -13522431.974 20244124.104 -7635607.922 10 0 60587 46800.00000 0 -13841646.817 20955851.034 -4504370.596 10 0 60587 47700.00000 0 -13877143.758 21373746.241 -1285697.472 10 0 60587 48600.00000 0 -13669716.759 21456902.169 1957932.186 10 0 60587 49500.00000 0 -13268490.357 21175385.526 5163563.381 10 0 60587 50400.00000 0 -12728640.880 20511633.592 8268986.364 10 0 60587 51300.00000 0 -12108875.846 19461347.771 11213942.433 10 0 60587 52200.00000 0 -11468778.314 18033846.379 13941291.132 10 0 60587 53100.00000 0 -10866128.517 16251861.307 16398116.176 10 0 60587 54000.00000 0 -10354315.814 14150786.464 18536748.886 10 0 60587 54900.00000 0 -9979950.078 11777408.648 20315689.617 10 0 60587 55800.00000 0 -9780773.059 9188173.063 21700409.728 10 0 60587 56700.00000 0 -9783957.618 6447054.847 22664019.058 10 0 60587 57600.00000 0 -10004866.403 3623124.237 23187786.438 10 0 60587 58500.00000 0 -10446322.329 787905.562 23261503.508 10 0 60587 59400.00000 0 -11098421.911 -1987361.226 22883684.989 10 0 60587 60300.00000 0 -11938899.835 -4634443.871 22061601.494 10 0 60587 61200.00000 0 -12934030.213 -7090713.805 20811143.956 10 0 60587 62100.00000 0 -14040027.544 -9301507.866 19156521.831 10 0 60587 63000.00000 0 -15204889.428 -11222158.343 17129800.190 10 0 60587 63900.00000 0 -16370604.403 -12819607.450 14770283.944 10 0 60587 64800.00000 0 -17475632.720 -14073539.483 12123760.339 10 0 60587 65700.00000 0 -18457556.062 -14976983.882 9241613.720 10 0 60587 66600.00000 0 -19255784.679 -15536364.399 6179829.311 10 0 60587 67500.00000 0 -19814207.596 -15770992.854 2997905.091 10 0 60587 68400.00000 0 -20083673.561 -15712029.315 -242307.022 10 0 60587 69300.00000 0 -20024197.234 -15400953.158 -3477807.762 10 0 60587 70200.00000 0 -19606796.508 -14887610.279 -6645680.854 10 0 60587 71100.00000 0 -18814882.374 -14227919.712 -9684322.436 10 0 60587 72000.00000 0 -17645141.624 -13481337.492 -12534644.811 10 0 60587 72900.00000 0 -16107874.207 -12708185.800 -15141230.383 10 0 60587 73800.00000 0 -14226770.145 -11966961.112 -17453412.752 10 0 60587 74700.00000 0 -12038134.698 -11311735.753 -19426263.527 10 0 60587 75600.00000 0 -9589593.670 -10789763.069 -21021465.590 10 0 60587 76500.00000 0 -6938332.605 -10439387.562 -22208055.956 10 0 60587 77400.00000 0 -4148943.082 -10288348.168 -22963024.150 10 0 60587 78300.00000 0 -1290965.565 -10352546.080 -23271754.970 10 0 60587 79200.00000 0 1563769.272 -10635328.726 -23128307.634 10 0 60587 80100.00000 0 4343890.616 -11127319.771 -22535526.390 10 0 60587 81000.00000 0 6981215.272 -11806801.973 -21504980.917 10 0 60587 81900.00000 0 9413340.540 -12640636.557 -20056737.993 10 0 60587 82800.00000 0 11585995.296 -13585680.269 -18218968.986 10 0 60587 83700.00000 0 13455052.554 -14590640.442 -16027400.828 10 0 60587 84600.00000 0 14988120.878 -15598290.019 -13524620.985 10 0 60587 85500.00000 0 16165649.543 -16547949.339 -10759249.793 99